Location: Christchurch
(43.5000°S, 172.6000°E)
Time: 03:46:48
(UTC+12:00)

ISS - Visible Passes

Search period start: 24 August 2017 00:00
Search period end: 03 September 2017 00:00
Orbit: 401 x 408 km, 51.6° (Epoch: 24 August)

Date Brightness Start Highest point End Pass type
(mag) Time Alt. Az. Time Alt. Az. Time Alt. Az.
26 Aug -1.6 19:00:15 10° NNE 19:01:23 12° NE 19:01:23 12° NE visible
27 Aug -2.9 19:42:09 10° NW 19:44:33 38° N 19:44:33 38° N visible
28 Aug -2.6 18:50:19 10° NNW 18:53:09 27° NE 18:54:53 17° E visible
28 Aug -1.2 20:26:18 10° W 20:27:34 21° W 20:27:34 21° W visible
29 Aug -3.7 19:33:47 10° WNW 19:37:06 75° SSW 19:37:45 53° SE visible
30 Aug -3.7 18:41:29 10° NW 18:44:46 61° NE 18:47:50 12° ESE visible
30 Aug -1.6 20:18:29 10° W 20:20:30 25° SW 20:20:30 25° SW visible
31 Aug -2.7 19:25:46 10° W 19:28:56 40° SSW 19:30:29 24° SSE visible
01 Sep -3.4 18:33:10 10° WNW 18:36:28 63° SSW 18:39:48 10° SE visible
01 Sep -1.6 20:10:44 10° WSW 20:13:01 21° SSW 20:13:01 21° SSW visible
02 Sep -2.0 19:17:55 10° WSW 19:20:49 26° SSW 19:22:51 15° SE visible
02 Sep -0.2 20:55:29 10° SW 20:55:30 10° SW 20:55:30 10° SW visible
